Regional Weather Roundup
Issued by NWS

Home | Current Version | Previous Version | Graphics & Text | Print | Product List | Glossary On
Versions: 1 2 3 4 5 6 7 8 9 10 11 12 13 14 15 16 17 18 19 20 21 22 23 24 25 26 27 28 29 30 31 32 33 34 35 36 37 38 39 40 41 42 43 44 45 46 47 48 49 50
000
ASUS45 KABQ 261201
RWRNM
NEW MEXICO REGIONAL WEATHER ROUNDUP
NATIONAL WEATHER SERVICE ALBUQUERQUE NM
600 AM MDT THU MAY 26 2016

NOTE: "FAIR" MEANS FEW OR NO CLOUDS BELOW 12,000 FEET AGL WITH NO
       SIGNIFICANT WEATHER OR OBSTRUCTIONS TO VISION.

      THIS PRODUCT IS RELEASED AS TWO VERSIONS.  ONE VERSION NEAR
      THE TOP OF THE HOUR CONTAINING PRELIMINARY DATA FROM ALBUQUERQUE
      AND OTHER STATIONS.  A FINAL VERSION WITH ADDITIONAL DATA IS
      ISSUED ABOUT 10 MINUTES AFTER THE HOUR.

NMZ501-503-504-510>518-261300-
NORTHWEST PLATEAU/NORTHCENTRAL MOUNTAINS

CITY           SKY/WX    TMP DP  RH WIND       PRES   REMARKS
FARMINGTON     CLOUDY    51  16  24 E3        29.96S
6HR MIN TEMP:  48; 6HR MAX TEMP:  59;

SANTA FE       MOCLDY    40  20  44 N5        29.99F
6HR MIN TEMP:  38; 6HR MAX TEMP:  56;

TAOS           FAIR      39  19  45 CALM      30.04S

$$
NMZ402-403-502-505>509-261300-
WESTCENTRAL MOUNTAINS/SOUTHWEST MOUNTAINS

CITY           SKY/WX    TMP DP  RH WIND       PRES   REMARKS
GALLUP         FAIR      44  17  33 S12       30.03F
6HR MIN TEMP:  40; 6HR MAX TEMP:  48;

GRANTS         FAIR      31  17  55 CALM      30.06S
SILVER CITY      N/A     48  18  29 N7        30.05R

$$
NMZ407-409-411-412-261300-
SOUTHERN DESERTS

CITY           SKY/WX    TMP DP  RH WIND       PRES   REMARKS
LORDSBURG      FAIR      50  19  29 W6        30.00R
DEMING         FAIR      54  24  31 NW7       30.00S
6HR MIN TEMP:  54; 6HR MAX TEMP:  71;

HOLLOMAN AFB   FAIR      62  20  19 S6        29.96S
ALAMOGORDO     FAIR      55  18  22 E3        29.98S
T OR C         FAIR      57  19  22 W7        29.96S
6HR MIN TEMP:  57; 6HR MAX TEMP:  71;


$$
NMZ519>523-261300-
CENTRAL VALLEYS/CENTRAL HIGHLANDS

CITY           SKY/WX    TMP DP  RH WIND       PRES   REMARKS
ALBUQUERQUE    FAIR      51  15  23 SE6       29.98S
6HR MIN TEMP:  49; 6HR MAX TEMP:  61;

DOUBLE EAGLE   PTCLDY    48  18  29 CALM      30.00S
CLINES CORNERS FAIR      42  15  33 W10       30.02F
6HR MIN TEMP:  41; 6HR MAX TEMP:  57;

BELEN          FAIR      47  17  29 W6        29.98R
6HR MIN TEMP:  47; 6HR MAX TEMP:  63;

SOCORRO        NOT AVBL

$$
NMZ524>526-539-540-261300-
SOUTHCENTRAL MOUNTAINS

CITY           SKY/WX    TMP DP  RH WIND       PRES   REMARKS
RUIDOSO        NOT AVBL

$$
NMZ527>531-261300-
NORTHEAST HIGHLANDS/NORTHEAST PLAINS

CITY           SKY/WX    TMP DP  RH WIND       PRES   REMARKS
LAS VEGAS      FAIR      45  20  36 VRB3      30.00S
6HR MIN TEMP:  43; 6HR MAX TEMP:  55;

RATON          FAIR      41  24  51 NE5       29.96F
6HR MIN TEMP:  36; 6HR MAX TEMP:  54;

CLAYTON        FAIR      56  23  27 W10       29.90S
6HR MIN TEMP:  52; 6HR MAX TEMP:  59;


$$
NMZ532>537-261300-
EASTCENTRAL PLAINS

CITY           SKY/WX    TMP DP  RH WIND       PRES   REMARKS
TUCUMCARI      FAIR      56  25  30 SW7       29.87R
6HR MIN TEMP:  53; 6HR MAX TEMP:  64;

CANNON AFB     NOT AVBL
CLOVIS AIRPORT FAIR      61  43  51 SW13      29.91S

$$
NMZ028-029-538-261300-
SOUTHEAST PLAINS

CITY           SKY/WX    TMP DP  RH WIND       PRES   REMARKS
ROSWELL        FAIR      61  21  21 W9        29.90R
6HR MIN TEMP:  58; 6HR MAX TEMP:  70;

ARTESIA        FAIR      57  18  21 W12       29.90S
CARLSBAD       FAIR      66  24  20 NW9       29.89S
6HR MIN TEMP:  58; 6HR MAX TEMP:  75;

HOBBS          CLEAR     59  59 100 S9        29.93R


$$




USA.gov is the U.S. government's official web portal to all federal, state and local government web resources and services.